FW1140 Weather Reports


Display with metric or nautical units.
time (UTC)temp
F
wind
direction
speed
MPH
gust
MPH
rain 1hr
in
rain 24hr
in
rain mn
in
humidity
%
barometer
mb
20260902060014 0 0.0 0.0 0.00 0.07 0.00 1008.6
20260902054535 0 0.0 0.0 0.00 0.07 0.00 1008.7
20260902053044 62 310 0.0 2.0 0.00 0.07 0.00 90 1008.8
20260902051537 63 310 0.0 3.0 0.00 0.07 0.00 90 1008.7
20260902050009 64 303 0.0 1.0 0.00 0.07 0.07 88 1008.4
20260902044539 64 303 0.0 4.0 0.00 0.07 0.07 88 1009.1
20260902043109 65 1 0.0 2.0 0.00 0.07 0.07 85 1009.2
20260902041524 64 73 0.0 2.0 0.00 0.07 0.07 86 1009.0
20260902040020 64 319 0.0 0.0 0.00 0.07 0.07 89 1009.1
20260902034539 64 319 0.0 1.0 0.02 0.07 0.07 89 1009.4
20260902033041 64 319 1.0 3.0 0.05 0.07 0.07 88 1009.4
20260902031552 65 142 0.0 3.0 0.05 0.07 0.07 87 1009.5
20260902030052 66 98 1.0 3.0 0.05 0.07 0.07 84 1009.6
20260902024557 66 127 0.0 2.0 0.03 0.05 0.05 90 1009.8
20260902023114 66 260 0.0 2.0 0.00 0.02 0.02 89 1010.0
20260902021518 66 260 1.0 2.0 0.01 0.02 0.02 90 1009.8
20260902020039 67 145 0.0 1.0 0.01 0.02 0.02 90 1009.3
20260902014541 67 145 0.0 0.0 0.02 0.02 0.02 89 1008.9
20260902013005 68 145 0.0 3.0 0.02 0.02 0.02 87 1009.1
20260902011612 68 145 1.0 3.0 0.01 0.01 0.01 87 1009.4
20260902010105 68 129 0.0 2.0 0.01 0.01 0.01 89 1009.2
20260902004501 68 129 0.0 1.0 0.00 0.00 0.00 89 1009.3
20260902003020 69 129 0.0 2.0 0.00 0.00 0.00 87 1009.3
20260902001533 70 129 0.0 1.0 0.00 0.00 0.00 86 1009.4
20260902000043 70 129 0.0 0.0 0.00 0.00 0.00 84 1009.2
20260901234557 71 129 0.0 0.0 0.00 0.00 0.00 81 1009.4
20260901233047 73 129 0.0 0.0 0.00 0.00 0.00 74 1009.6
20260901231513 73 129 0.0 0.0 0.00 0.00 0.00 72 1009.4
20260901230121 74 128 0.0 2.0 0.00 0.00 0.00 73 1009.7
20260901224616 75 1 0.0 1.0 0.00 0.00 0.00 70 1009.7
20260901223032 75 1 0.0 2.0 0.00 0.00 0.00 69 1010.0
20260901221530 76 1 0.0 2.0 0.00 0.00 0.00 63 1010.2
20260901220040 77 1 0.0 2.0 0.00 0.00 0.00 60 1010.4
20260901214529 77 1 0.0 3.0 0.00 0.00 0.00 57 1010.1
20260901213108 78 28 1.0 4.0 0.00 0.00 0.00 57 1010.5
20260901211548 78 2 1.0 4.0 0.00 0.00 0.00 58 1010.5
20260901210035 77 72 1.0 3.0 0.00 0.00 0.00 59 1010.2
20260901204606 78 72 0.0 2.0 0.00 0.00 0.00 55 1010.4
20260901203021 77 72 0.0 3.0 0.00 0.00 0.00 60 1010.5
20260901201534 77 96 1.0 3.0 0.00 0.00 0.00 60 1010.4
20260901200107 78 68 3.0 5.0 0.00 0.00 0.00 60 1009.8
20260901194607 76 75 2.0 5.0 0.00 0.00 0.00 60 1009.7
20260901193036 76 127 1.0 4.0 0.00 0.00 0.00 60 1010.3
20260901191545 78 55 3.0 6.0 0.00 0.00 0.00 56 1010.3
20260901190029 79 72 2.0 6.0 0.00 0.00 0.00 55 1010.4
20260901184523 77 51 3.0 7.0 0.00 0.00 0.00 56 1010.2
20260901183043 77 122 2.0 7.0 0.00 0.00 0.00 59 1010.1
20260901181511 78 13 2.0 6.0 0.00 0.00 0.00 53 1010.3
20260901180039 78 44 2.0 5.0 0.00 0.00 0.00 56 1010.1
20260901174532 78 39 2.0 5.0 0.00 0.00 0.00 53 1010.4
20260901173106 80 19 2.0 6.0 0.00 0.00 0.00 51 1010.4
20260901171554 79 60 2.0 6.0 0.00 0.00 0.00 50 1010.6
20260901170122 77 113 2.0 4.0 0.00 0.00 0.00 52 1011.0
20260901164609 76 111 1.0 4.0 0.00 0.00 0.00 52 1011.2
20260901163008 77 123 0.0 3.0 0.00 0.00 0.00 54 1011.2
20260901161553 73 294 0.0 1.0 0.00 0.00 0.00 56 1011.3
20260901160019 73 294 1.0 4.0 0.00 0.00 0.00 56 1011.1
20260901154516 72 311 0.0 3.0 0.00 0.00 0.00 60 1011.3
20260901153039 72 338 2.0 5.0 0.00 0.00 0.00 60 1011.2
20260901151533 71 293 2.0 6.0 0.00 0.00 0.00 61 1011.2
20260901150012 71 1 2.0 5.0 0.00 0.00 0.00 61 1011.1
20260901144534 70 341 1.0 4.0 0.00 0.00 0.00 63 1011.5
20260901143022 70 358 0.0 3.0 0.00 0.00 0.00 65 1011.5
20260901141609 69 1 0.0 3.0 0.00 0.00 0.00 67 1011.5
20260901140014 69 1 0.0 2.0 0.00 0.00 0.00 67 1011.5
20260901134522 69 1 0.0 2.0 0.00 0.00 0.00 65 1011.5
20260901133042 70 296 0.0 3.0 0.00 0.00 0.00 66 1011.4
20260901131553 69 323 0.0 2.0 0.00 0.00 0.00 64 1011.2
20260901130011 68 290 0.0 2.0 0.00 0.00 0.00 66 1011.3
20260901124553 64 212 0.0 3.0 0.00 0.00 0.00 73 1011.1
20260901123051 62 302 0.0 1.0 0.00 0.00 0.00 76 1010.7
20260901121517 62 261 0.0 2.0 0.00 0.00 0.00 72 1010.5
20260901120005 61 219 1.0 5.0 0.00 0.00 0.00 76 1010.5
20260901114557 61 211 2.0 5.0 0.00 0.00 0.00 75 1010.3
20260901113046 63 245 1.0 3.0 0.00 0.00 0.00 72 1010.1
20260901111616 63 253 2.0 6.0 0.00 0.00 0.00 74 1010.1
20260901110046 64 255 2.0 6.0 0.00 0.00 0.00 72 1010.0
20260901104603 64 261 2.0 8.0 0.00 0.00 0.00 74 1010.0
20260901103008 64 252 3.0 6.0 0.00 0.00 0.00 74 1010.1
20260901101540 0 0.0 0.0 0.00 0.00 0.00 1010.0
20260901100004 0 0.0 0.0 0.00 0.00 0.00 1009.6
20260901094537 0 0.0 0.0 0.00 0.00 0.00 1009.6
20260901093038 0 0.0 0.0 0.00 0.00 0.00 1009.7
20260901091608 60 231 3.0 5.0 0.00 0.00 0.00 87 1009.8
20260901090030 61 240 3.0 5.0 0.00 0.00 0.00 87 1009.7
20260901084504 61 206 2.0 5.0 0.00 0.00 0.00 88 1009.4
20260901083102 60 233 1.0 3.0 0.00 0.00 0.00 88 1009.3
20260901081613 59 210 2.0 5.0 0.00 0.00 0.00 90 1009.4
20260901080100 59 215 2.0 3.0 0.00 0.00 0.00 89 1009.4
20260901074603 60 195 1.0 3.0 0.00 0.00 0.00 88 1009.3
20260901073018 61 172 1.0 5.0 0.00 0.00 0.00 88 1009.4
20260901071514 61 199 0.0 3.0 0.00 0.00 0.00 88 1009.3
20260901070026 61 212 1.0 4.0 0.00 0.00 0.00 87 1009.3
20260901064523 62 233 0.0 7.0 0.00 0.00 0.00 86 1009.4
20260901063026 62 204 1.0 4.0 0.00 0.00 0.00 86 1009.4
20260901061611 62 225 0.0 3.0 0.00 0.00 0.00 85 1009.6